Campbell Mountain 4K

Back to 2019 XC Races

2019 XC Race

2019-09-22, Penticton, 3.6 km
# Name City Age GP CP Time Pace
1 Emily Jell Summerland F01-15 0:20:16 05:37
2 Rowan Musselman Bell Penticton M01-15 0:21:06 05:51
3 Payton Mitchell Summerland F01-15 0:21:10 05:52
4 Katie Jell Summerland F01-15 0:22:21 06:12
5 Thomas Wilkie Penticton M01-15 0:22:27 06:14
6 Kyden Hurst Penticton M01-15 0:22:38 06:17
7 Hayden Porcellato Penticton F01-15 4 4 0:23:21 06:29
8 Violet Porcellato Penticton F01-15 5 5 0:23:22 06:29
9 Sophia Jaron-Flower Summerland F01-15 6 6 0:23:42 06:35
10 Anna Farbridge Penticton F01-15 7 7 0:23:43 06:35
11 Ayla Musselman Bell Penticton F01-15 8 8 0:23:47 06:36
12 Jessica Wilkie Penticton F01-15 9 9 0:24:17 06:44
13 Nathan Michael Penticton M01-15 4 4 0:24:20 06:45
14 Alicia Jell Summerland F01-15 10 10 0:24:33 06:49
15 Janine Jell Summerland F40-44 11 0:24:35 06:49
16 Emerson Mitchell Summerland M01-15 5 5 0:25:23 07:03
17 Chase Knowlton Summerland M01-15 6 6 0:25:45 07:09
18 Jenny Mitchell Summerland F40-44 12 0:25:46 07:09
19 Cadence Quigley Kelowna M01-15 7 7 0:26:58 07:29
20 Mirko Porcellato Penticton M40-44 8 0:27:04 07:31
21 Rhys Hughes Summerland M01-15 9 8 0:27:08 07:32
22 Slade Hughes Summerland M45-49 10 0:27:21 07:35
23 Joy Peterson Summerland F50-54 13 0:27:21 07:35
24 Anthony Haddad Penticton M40-44 11 0:29:12 08:06
25 Brian Usher Penticton M16-19 12 0:29:57 08:19
26 Finley Knowlton Summerland F01-15 14 11 0:30:17 08:24
27 Finn Porcellato Penticton M01-15 13 9 0:30:18 08:25
28 Trevor Knowlton Summerland M45-49 14 0:30:30 08:28
29 Benjamin Wilkie Penticton M01-15 15 10 0:30:40 08:31
30 Melanie Wilkie Penticton F35-39 15 0:30:40 08:31
31 Sarah Porcellato Penticton F40-44 16 0:30:41 08:31
32 Taylor Hurst Penticton F01-15 17 12 0:35:20 09:48
33 Ann Hurst Penticton F40-44 18 4 0:35:21 09:49
34 Addison Knowlton Summerland F01-15 19 13 0:36:08 10:02
35 Kim Wise Summerland F40-44 20 5 0:36:09 10:02
36 Lorenzo Atilano Penticton M01-15 16 11 0:37:01 10:16
37 James Usher Penticton M01-15 17 12 0:43:10 11:59
38 Jennifer Usher Penticton F45-49 21 0:43:48 12:10
Missing or Incorrect Results